| time (UTC) | temp F | wind direction | speed MPH | gust MPH | rain 1hr in | rain 24hr in | rain mn in | humidity % | barometer mb |
| 20260902053058 | 84 | 148 | 0.0 | 5.0 | 0.00 | 0.00 | 0.00 | 66 | 1017.0 |
| 20260902051555 | 84 | 0 | 1.0 | 3.0 | 0.00 | 0.00 | 0.00 | 66 | 1017.3 |
| 20260902050108 | 85 | 143 | 0.0 | 4.0 | 0.00 | 0.00 | 0.00 | 65 | 1017.1 |
| 20260902044606 | 86 | 107 | 2.0 | 7.0 | 0.00 | 0.00 | 0.00 | 64 | 1016.9 |
| 20260902043050 | 86 | 100 | 3.0 | 7.0 | 0.00 | 0.00 | 0.00 | 64 | 1016.7 |
| 20260902041558 | 86 | 109 | 1.0 | 6.0 | 0.00 | 0.00 | 0.00 | 64 | 1016.9 |
| 20260902040055 | 87 | 47 | 3.0 | 7.0 | 0.00 | 0.00 | 0.00 | 64 | 1016.9 |
| 20260902034600 | 87 | 41 | 2.0 | 10.0 | 0.00 | 0.00 | 0.00 | 62 | 1016.7 |
| 20260902033103 | 88 | 37 | 1.0 | 10.0 | 0.00 | 0.00 | 0.00 | 60 | 1016.5 |
| 20260902031549 | 89 | 115 | 4.0 | 10.0 | 0.00 | 0.00 | 0.00 | 58 | 1016.3 |
| 20260902030055 | 89 | 39 | 5.0 | 11.0 | 0.00 | 0.00 | 0.00 | 57 | 1016.0 |
| 20260902024556 | 90 | 133 | 3.0 | 7.0 | 0.00 | 0.00 | 0.00 | 57 | 1015.7 |
| 20260902023053 | 90 | 53 | 2.0 | 10.0 | 0.00 | 0.00 | 0.00 | 55 | 1015.4 |
| 20260902021553 | 90 | 0 | 0.0 | 4.0 | 0.00 | 0.00 | 0.00 | 55 | 1015.0 |
| 20260902020045 | 90 | 0 | 0.0 | 0.0 | 0.00 | 0.00 | 0.00 | 53 | 1014.7 |
| 20260902014553 | 90 | 0 | 0.0 | 0.0 | 0.00 | 0.00 | 0.00 | 53 | 1014.5 |
| 20260902013050 | 92 | 0 | 0.0 | 1.0 | 0.00 | 0.00 | 0.00 | 50 | 1014.5 |
| 20260902011549 | 92 | 0 | 0.0 | 1.0 | 0.00 | 0.00 | 0.00 | 48 | 1014.2 |
| 20260902010057 | 93 | 0 | 0.0 | 0.0 | 0.00 | 0.00 | 0.00 | 48 | 1014.3 |
| 20260902004555 | 94 | 0 | 0.0 | 1.0 | 0.00 | 0.00 | 0.00 | 46 | 1014.2 |
| 20260902003053 | 95 | 98 | 0.0 | 1.0 | 0.00 | 0.00 | 0.00 | 44 | 1014.3 |
| 20260902001550 | 96 | 86 | 0.0 | 3.0 | 0.00 | 0.00 | 0.00 | 42 | 1014.4 |
| 20260902000056 | 97 | 147 | 0.0 | 1.0 | 0.00 | 0.00 | 0.00 | 41 | 1014.3 |
| 20260901234554 | 97 | 0 | 0.0 | 2.0 | 0.00 | 0.00 | 0.00 | 41 | 1014.3 |
| 20260901233053 | 98 | 0 | 0.0 | 2.0 | 0.00 | 0.00 | 0.00 | 40 | 1014.5 |
| 20260901231551 | 98 | 0 | 0.0 | 3.0 | 0.00 | 0.00 | 0.00 | 39 | 1014.5 |
| 20260901230051 | 98 | 55 | 0.0 | 3.0 | 0.00 | 0.00 | 0.00 | 40 | 1014.6 |
| 20260901224548 | 98 | 67 | 0.0 | 4.0 | 0.00 | 0.00 | 0.00 | 41 | 1014.7 |
| 20260901223054 | 98 | 0 | 0.0 | 4.0 | 0.00 | 0.00 | 0.00 | 42 | 1014.6 |
| 20260901221556 | 98 | 0 | 0.0 | 1.0 | 0.00 | 0.00 | 0.00 | 39 | 1014.6 |
| 20260901220050 | 98 | 0 | 0.0 | 0.0 | 0.00 | 0.00 | 0.00 | 42 | 1014.7 |
| 20260901214550 | 97 | 37 | 1.0 | 4.0 | 0.00 | 0.00 | 0.00 | 42 | 1014.7 |
| 20260901213108 | 97 | 0 | 0.0 | 4.0 | 0.00 | 0.00 | 0.00 | 41 | 1014.9 |
| 20260901211554 | 96 | 87 | 3.0 | 6.0 | 0.00 | 0.00 | 0.00 | 42 | 1015.1 |
| 20260901210051 | 97 | 129 | 0.0 | 4.0 | 0.00 | 0.00 | 0.00 | 41 | 1015.2 |
| 20260901204549 | 96 | 0 | 0.0 | 4.0 | 0.00 | 0.00 | 0.00 | 42 | 1015.4 |
| 20260901203046 | 96 | 53 | 1.0 | 6.0 | 0.00 | 0.00 | 0.00 | 42 | 1015.8 |
| 20260901201553 | 96 | 0 | 0.0 | 7.0 | 0.00 | 0.00 | 0.00 | 42 | 1016.0 |
| 20260901200051 | 95 | 0 | 0.0 | 4.0 | 0.00 | 0.00 | 0.00 | 42 | 1016.2 |
| 20260901194559 | 95 | 0 | 1.0 | 6.0 | 0.00 | 0.00 | 0.00 | 45 | 1016.4 |
| 20260901193056 | 95 | 53 | 2.0 | 8.0 | 0.00 | 0.00 | 0.00 | 44 | 1016.4 |
| 20260901191557 | 94 | 51 | 3.0 | 5.0 | 0.00 | 0.00 | 0.00 | 46 | 1016.7 |
| 20260901184559 | 94 | 0 | 0.0 | 5.0 | 0.00 | 0.00 | 0.00 | 48 | 1017.3 |
| 20260901183048 | 93 | 56 | 2.0 | 6.0 | 0.00 | 0.00 | 0.00 | 49 | 1017.4 |
| 20260901181555 | 92 | 55 | 0.0 | 6.0 | 0.00 | 0.00 | 0.00 | 50 | 1017.7 |
| 20260901180048 | 91 | 65 | 3.0 | 8.0 | 0.00 | 0.00 | 0.00 | 50 | 1018.1 |
| 20260901174604 | 92 | 255 | 0.0 | 3.0 | 0.00 | 0.00 | 0.00 | 51 | 1018.1 |
| 20260901173052 | 91 | 76 | 1.0 | 6.0 | 0.00 | 0.00 | 0.00 | 51 | 1018.4 |
| 20260901171605 | 91 | 0 | 0.0 | 3.0 | 0.00 | 0.00 | 0.00 | 52 | 1018.6 |
| 20260901170055 | 90 | 109 | 1.0 | 4.0 | 0.00 | 0.00 | 0.00 | 46 | 1018.6 |
| 20260901164558 | 89 | 130 | 2.0 | 9.0 | 0.00 | 0.00 | 0.00 | 59 | 1018.9 |
| 20260901163053 | 88 | 74 | 1.0 | 6.0 | 0.00 | 0.00 | 0.00 | 63 | 1018.9 |
| 20260901161550 | 87 | 62 | 0.0 | 7.0 | 0.00 | 0.00 | 0.00 | 64 | 1018.9 |
| 20260901160051 | 87 | 0 | 1.0 | 4.0 | 0.00 | 0.00 | 0.00 | 65 | 1019.1 |
| 20260901154544 | 86 | 65 | 1.0 | 5.0 | 0.00 | 0.00 | 0.00 | 69 | 1018.8 |
| 20260901153055 | 86 | 69 | 0.0 | 4.0 | 0.00 | 0.00 | 0.00 | 70 | 1018.9 |
| 20260901151551 | 86 | 121 | 1.0 | 4.0 | 0.00 | 0.00 | 0.00 | 70 | 1019.0 |
| 20260901150051 | 85 | 82 | 2.0 | 5.0 | 0.00 | 0.00 | 0.00 | 72 | 1019.0 |
| 20260901144551 | 0 | 0.0 | 0.0 | 0.00 | 0.00 | 0.00 | 1018.9 | ||
| 20260901143050 | 0 | 0.0 | 0.0 | 0.00 | 0.00 | 0.00 | 1018.9 | ||
| 20260901141555 | 0 | 0.0 | 0.0 | 0.00 | 0.00 | 0.00 | 1018.8 | ||
| 20260901140054 | 0 | 0.0 | 0.0 | 0.00 | 0.00 | 0.00 | 1018.9 | ||
| 20260901134607 | 0 | 0.0 | 0.0 | 0.00 | 0.00 | 0.00 | 1018.8 | ||
| 20260901133101 | 0 | 0.0 | 0.0 | 0.00 | 0.00 | 0.00 | 1018.7 | ||
| 20260901131558 | 0 | 0.0 | 0.0 | 0.00 | 0.00 | 0.00 | 1018.5 | ||
| 20260901130049 | 0 | 0.0 | 0.0 | 0.00 | 0.00 | 0.00 | 1018.3 | ||
| 20260901124559 | 0 | 0.0 | 0.0 | 0.00 | 0.00 | 0.00 | 1018.3 | ||
| 20260901123051 | 0 | 0.0 | 0.0 | 0.00 | 0.00 | 0.00 | 1018.2 | ||
| 20260901121549 | 0 | 0.0 | 0.0 | 0.00 | 0.00 | 0.00 | 1018.0 | ||
| 20260901120055 | 0 | 0.0 | 0.0 | 0.00 | 0.00 | 0.00 | 1018.2 | ||
| 20260901114559 | 0 | 0.0 | 0.0 | 0.00 | 0.00 | 0.00 | 1018.1 | ||
| 20260901113103 | 0 | 0.0 | 0.0 | 0.00 | 0.00 | 0.00 | 1018.2 | ||
| 20260901111600 | 0 | 0.0 | 0.0 | 0.00 | 0.00 | 0.00 | 1018.1 | ||
| 20260901110056 | 0 | 0.0 | 0.0 | 0.00 | 0.00 | 0.00 | 1018.0 | ||
| 20260901104554 | 0 | 0.0 | 0.0 | 0.00 | 0.00 | 0.00 | 1018.0 | ||
| 20260901103107 | 0 | 0.0 | 0.0 | 0.00 | 0.00 | 0.00 | 1017.9 | ||
| 20260901101549 | 0 | 0.0 | 0.0 | 0.00 | 0.00 | 0.00 | 1018.0 | ||
| 20260901100055 | 0 | 0.0 | 0.0 | 0.00 | 0.00 | 0.00 | 1018.0 | ||
| 20260901094553 | 0 | 0.0 | 0.0 | 0.00 | 0.00 | 0.00 | 1018.1 | ||
| 20260901093051 | 0 | 0.0 | 0.0 | 0.00 | 0.00 | 0.00 | 1018.1 | ||
| 20260901091557 | 0 | 0.0 | 1.0 | 0.00 | 0.00 | 0.00 | 88 | 1018.2 | |
| 20260901090052 | 80 | 0 | 0.0 | 3.0 | 0.00 | 0.00 | 0.00 | 88 | 1018.2 |
| 20260901084549 | 80 | 0 | 0.0 | 3.0 | 0.00 | 0.00 | 0.00 | 87 | 1018.1 |
| 20260901083048 | 80 | 0 | 0.0 | 3.0 | 0.00 | 0.00 | 0.00 | 87 | 1018.2 |
| 20260901081556 | 80 | 144 | 0.0 | 1.0 | 0.00 | 0.00 | 0.00 | 87 | 1018.1 |
| 20260901080054 | 80 | 0 | 0.0 | 1.0 | 0.00 | 0.00 | 0.00 | 86 | 1018.0 |
| 20260901074601 | 80 | 53 | 0.0 | 3.0 | 0.00 | 0.00 | 0.00 | 85 | 1018.1 |
| 20260901073049 | 80 | 0 | 0.0 | 3.0 | 0.00 | 0.00 | 0.00 | 85 | 1018.0 |
| 20260901071554 | 80 | 0 | 0.0 | 4.0 | 0.00 | 0.00 | 0.00 | 83 | 1018.2 |
| 20260901070053 | 81 | 0 | 0.0 | 4.0 | 0.00 | 0.00 | 0.00 | 82 | 1018.2 |
| 20260901064549 | 81 | 0 | 0.0 | 7.0 | 0.00 | 0.00 | 0.00 | 80 | 1018.0 |
| 20260901063048 | 82 | 0 | 0.0 | 6.0 | 0.00 | 0.00 | 0.00 | 79 | 1018.0 |
| 20260901061553 | 82 | 0 | 0.0 | 2.0 | 0.00 | 0.00 | 0.00 | 78 | 1017.8 |
| 20260901060058 | 82 | 98 | 0.0 | 6.0 | 0.00 | 0.00 | 0.00 | 77 | 1017.7 |
| 20260901054553 | 82 | 134 | 0.0 | 3.0 | 0.00 | 0.00 | 0.00 | 76 | 1017.6 |